Change the Weather History Date:

Thursday, October 4, 2012

  Actual Average Record
Temperature  
Mean Temperature 34 °F -  
Max Temperature 53 °F 59 °F 78 °F (1992)
Min Temperature 15 °F 25 °F 15 °F (1964)
Degree Days  
Heating Degree Days 31    
Moisture  
Dew Point 16 °F    
Average Humidity 56    
Maximum Humidity 93    
Minimum Humidity 18    
Precipitation  
Precipitation 0.00 in - - ()
Sea Level Pressure  
Sea Level Pressure 30.21 in    
Wind  
Wind Speed 7 mph (North)    
Max Wind Speed 17 mph    
Max Gust Speed 21 mph    
Visibility 10 miles    
Events      
Averages and records for this station are not official NWS values.
T = Trace of Precipitation, MM = Missing Value Source: NWS Daily Summary

Daily Weather History Graph

Daily Weather History Graph

Search for Another Location

Airport or City:

Trip Planner

Search our weather history database for the weather conditions in past years. The results will help you decide how hot, cold, wet, or windy it might be!

Date:

Astronomy

Oct. 04, 2012 Rise Set
Actual Time 7:24 AM MDT 6:57 PM MDT
Civil Twilight 6:56 AM MDT 7:26 PM MDT
Nautical Twilight 6:22 AM MDT 7:59 PM MDT
Astronomical Twilight 5:49 AM MDT 8:32 PM MDT
Moon 9:27 PM MDT (10/4) 11:53 AM MDT (10/4)
Length of Visible Light 12h 30m
Length of Day
11h 32m
Waning Gibbous, 81% of the Moon is Illuminated
Oct 4
Waning Gibbous
Oct 8
Last Quarter
Oct 15
New
Oct 21
First Quarter
Oct 29
Full

Hourly Weather History & Observations

Time (MDT) Temp. Windchill Dew Point Humidity Pressure Visibility Wind Dir Wind Speed Gust Speed Precip Events Conditions
12:15 AM 30.2 °F 21.9 °F 19.4 °F 64% 30.27 in 10.0 mi North 9.2 mph - N/A   Clear
12:35 AM 28.4 °F 19.7 °F 19.4 °F 69% 30.28 in 10.0 mi North 9.2 mph - N/A   Clear
12:55 AM 28.4 °F 19.7 °F 19.4 °F 69% 30.28 in 10.0 mi North 9.2 mph - N/A   Clear
1:15 AM 28.4 °F 21.2 °F 19.4 °F 69% 30.27 in 10.0 mi North 6.9 mph - N/A   Clear
1:35 AM 26.6 °F 21.2 °F 19.4 °F 74% 30.28 in 10.0 mi North 4.6 mph - N/A   Clear
1:55 AM 26.6 °F 22.6 °F 17.6 °F 69% 30.28 in 10.0 mi NE 3.5 mph - N/A   Clear
2:15 AM 24.8 °F - 17.6 °F 74% 30.28 in 10.0 mi Calm Calm - N/A   Clear
2:35 AM 24.8 °F 17.9 °F 17.6 °F 74% 30.28 in 10.0 mi NNE 5.8 mph - N/A   Clear
2:55 AM 24.8 °F 17.9 °F 17.6 °F 74% 30.28 in 10.0 mi NE 5.8 mph - N/A   Clear
3:15 AM 24.8 °F 19.1 °F 17.6 °F 74% 30.27 in 10.0 mi ENE 4.6 mph - N/A   Clear
3:35 AM 21.2 °F - 15.8 °F 80% 30.27 in 10.0 mi Calm Calm - N/A   Clear
3:55 AM 23.0 °F - 15.8 °F 74% 30.27 in 10.0 mi Calm Calm - N/A   Clear
4:15 AM 21.2 °F 16.4 °F 15.8 °F 80% 30.27 in 10.0 mi East 3.5 mph - N/A   Clear
4:35 AM 19.4 °F 11.5 °F 14.0 °F 80% 30.26 in 10.0 mi East 5.8 mph - N/A   Clear
4:55 AM 21.2 °F 14.9 °F 15.8 °F 80% 30.26 in 10.0 mi East 4.6 mph - N/A   Clear
5:15 AM 21.2 °F - 14.0 °F 74% 30.26 in 10.0 mi Calm Calm - N/A   Clear
5:35 AM 17.6 °F 9.3 °F 14.0 °F 86% 30.26 in 10.0 mi North 5.8 mph - N/A   Clear
5:55 AM 17.6 °F 12.3 °F 15.8 °F 93% 30.26 in 10.0 mi North 3.5 mph - N/A   Clear
6:15 AM 19.4 °F - 14.0 °F 80% 30.26 in 10.0 mi Calm Calm - N/A   Clear
6:35 AM 21.2 °F - 14.0 °F 74% 30.26 in 10.0 mi Calm Calm - N/A   Clear
6:54 AM 15.8 °F 5.1 °F 14.0 °F 93% 30.26 in 10.0 mi North 8.1 mph - N/A   Clear
7:53 AM 15.8 °F 10.2 °F 14.0 °F 93% 30.26 in 10.0 mi North 3.5 mph - N/A   Clear
8:45 AM 26.6 °F - 19.4 °F 74% 30.26 in 10.0 mi Calm Calm - N/A   Clear
10:25 AM 37.4 °F - 17.6 °F 45% 30.24 in 10.0 mi Calm Calm - N/A   Clear
10:51 AM 37.4 °F 32.8 °F 17.6 °F 45% 30.23 in 10.0 mi SSW 5.8 mph - N/A   Clear
11:51 AM 41.0 °F 36.4 °F 17.6 °F 39% 30.20 in 10.0 mi South 6.9 mph - N/A   Clear
12:56 PM 46.4 °F 42.9 °F 15.8 °F 29% 30.17 in 10.0 mi SW 6.9 mph - N/A   Clear
1:51 PM 48.2 °F - 15.8 °F 27% 30.13 in 10.0 mi SSW 5.8 mph - N/A   Scattered Clouds
2:51 PM 51.8 °F - 14.0 °F 22% 30.10 in 10.0 mi South 13.8 mph - N/A   Scattered Clouds
3:53 PM 53.6 °F - 10.4 °F 18% 30.09 in 10.0 mi SSW 6.9 mph 16.1 mph N/A   Scattered Clouds
4:53 PM 51.8 °F - 10.4 °F 19% 30.08 in 10.0 mi SW 9.2 mph 20.7 mph N/A   Overcast
5:57 PM 50.0 °F - 12.2 °F 22% 30.09 in 10.0 mi West 6.9 mph - N/A   Clear
6:51 PM 46.4 °F 40.1 °F 12.2 °F 25% 30.10 in 10.0 mi WSW 15.0 mph - N/A   Mostly Cloudy
7:53 PM 44.6 °F 43.1 °F 12.2 °F 27% 30.11 in 10.0 mi West 3.5 mph - N/A   Overcast
8:55 PM 44.6 °F 38.4 °F 12.2 °F 27% 30.11 in 10.0 mi North 12.7 mph - N/A   Overcast
9:15 PM 44.6 °F 37.2 °F 15.8 °F 31% 30.11 in 10.0 mi NNE 17.3 mph - N/A   Overcast
9:36 PM 42.8 °F 36.2 °F 14.0 °F 31% 30.13 in 10.0 mi NNE 12.7 mph - N/A   Overcast
9:55 PM 42.8 °F 35.8 °F 12.2 °F 29% 30.13 in 10.0 mi North 13.8 mph - N/A   Overcast
10:35 PM 41.0 °F 34.7 °F 14.0 °F 33% 30.13 in 10.0 mi NNE 10.4 mph - N/A   Overcast
10:55 PM 41.0 °F 33.9 °F 15.8 °F 36% 30.14 in 10.0 mi NNE 12.7 mph 19.6 mph N/A   Overcast
11:15 PM 39.2 °F 33.0 °F 17.6 °F 42% 30.14 in 10.0 mi NNE 9.2 mph - N/A   Mostly Cloudy
11:35 PM 39.2 °F 32.0 °F 19.4 °F 45% 30.14 in 10.0 mi NNE 11.5 mph - N/A   Scattered Clouds
11:55 PM 37.4 °F 30.3 °F 19.4 °F 48% 30.14 in 10.0 mi NNE 10.4 mph - N/A   Partly Cloudy